Погода в Колымском

Россия / Республика Саха (Якутия)     68°43′40″N   158°42′16″E
темп.,
°C
ветер,
м/с
пор.,
м/с
влажн.,
%
обл.,
%
осадки,
мм/ч
давл.,
гПа
погр.,
м
1 марта, пн
пн123:00−32всв34960 0.0 102721
02:00−32всв44940 0.0 102525
05:00−31всв34910 0.0 102320
08:00−31ссв23930 0.0 102219
11:00−29ссв22910 0.0 102119
14:00−28св22890 0.0 101920
17:00−30ссв33910 0.0 101819
20:00−32ссв23970 0.0 101819
2 марта, вт
вт223:00−34ссз221000 0.0 101819
02:00−34зсз331000 0.0 101919
05:00−35з44999 0.0 102027
08:00−35з459834 0.0 102238
11:00−34зюз459756 0.0 1023105
14:00−32зюз469578 0.0 1025172
17:00−34зюз459755 0.0 102642
20:00−36юз45968 0.0 102835
3 марта, ср
ср323:00−37юз44968 0.0 102825
02:00−38ююз34953 0.0 102919
05:00−38ю239427 0.0 102919
08:00−38юв349560 0.0 102919
11:00−35вюв349465 0.0 1027102
14:00−33в469498 0.0 1025193
17:00−33всв4695100 0.0 1022114
20:00−34всв4595100 0.0 102041
4 марта, чт
чт423:00−34св459894 0.0 101533
02:00−31св5697100 0.0 1011116
05:00−29св6895100 0.0 1005170
08:00−27ссв81192100 0.0 999212
11:00−23ссв81198100 0.3 992217
14:00−19св7996100 0.3 986234
17:00−17ссв5696100 0.5 983126
20:00−16с3397100 0.1 98131
5 марта, пт
пт523:00−16св3396100 0.5 97948
02:00−16всв3496100 0.2 97944
05:00−17ссв3397100 0.2 97942
08:00−17ссв61096100 0.2 980292
11:00−16ссв71094100 0.5 981491
14:00−15ссв6895100 0.7 982541
17:00−17ссв71194100 1.0 984320
20:00−18св7996100 0.1 986218